This is the latest recevied weather packets stored in our database for station/object IK2ILW-4. If no packets are shown the sender has not sent any weather packets the latest 10 day(s).
| Time | Temp. | Humidity | Pressure | Rain* | Wind** | Luminosity | Snow |
|---|---|---|---|---|---|---|---|
| 1777714976 | 12.78° C | 58% | 1026 hPa | 0 mm | - | 788 W/m² | - |
| 1777714661 | 12.78° C | 58% | 1026 hPa | 0 mm | - | 793 W/m² | - |
| 1777714377 | 12.22° C | 57% | 1026 hPa | 0 mm | - | 768 W/m² | - |
| 1777714066 | 12.22° C | 58% | 1026 hPa | 0 mm | - | 777 W/m² | - |
| 1777713782 | 12.22° C | 58% | 1026 hPa | 0 mm | - | 761 W/m² | - |
| 1777713468 | 12.22° C | 58% | 1026 hPa | 0 mm | - | 737 W/m² | - |
| 1777713156 | 12.22° C | 58% | 1026.2 hPa | 0 mm | - | 763 W/m² | - |
| 1777712874 | 11.67° C | 60% | 1026.2 hPa | 0 mm | - | 745 W/m² | - |
| 1777712561 | 11.67° C | 59% | 1026.2 hPa | 0 mm | - | 731 W/m² | - |
| 1777712277 | 11.11° C | 58% | 1026 hPa | 0 mm | - | 712 W/m² | - |
| 1777711963 | 11.67° C | 58% | 1026 hPa | 0 mm | - | 714 W/m² | - |
| 1777711682 | 12.22° C | 56% | 1026 hPa | 0 mm | - | 728 W/m² | - |
| 1777711369 | 12.78° C | 56% | 1026.3 hPa | 0 mm | - | 717 W/m² | - |
| 1777711057 | 12.22° C | 56% | 1026.3 hPa | 0 mm | - | 703 W/m² | - |
| 1777710773 | 11.67° C | 57% | 1026.3 hPa | 0 mm | - | 691 W/m² | - |
| 1777710458 | 11.11° C | 59% | 1026.2 hPa | 0 mm | - | 679 W/m² | - |
| 1777710173 | 11.11° C | 58% | 1026.2 hPa | 0 mm | - | 671 W/m² | - |
| 1777709858 | 11.11° C | 61% | 1026.2 hPa | 0 mm | - | 657 W/m² | - |
| 1777709575 | 10.56° C | 61% | 1026.2 hPa | 0 mm | - | 650 W/m² | - |
| 1777709264 | 10.56° C | 61% | 1026.2 hPa | 0 mm | - | 638 W/m² | - |
| 1777708980 | 10.56° C | 60% | 1026.2 hPa | 0 mm | - | 624 W/m² | - |
| 1777708665 | 10.56° C | 63% | 1026.4 hPa | 0 mm | - | 615 W/m² | - |
| 1777708381 | 10.56° C | 62% | 1026.4 hPa | 0 mm | - | 605 W/m² | - |
| 1777708065 | 10.56° C | 60% | 1026.4 hPa | 0 mm | - | 591 W/m² | - |
| 1777707781 | 10° C | 62% | 1026.7 hPa | 0 mm | - | 578 W/m² | - |
* Rain since midnight (hover to see other rain measurements)
** Current wind speed in m/s (hover to see current wind gust speed)